Weather History for Cheyenne, WY

Change the Weather History Date:

Wednesday, January 2, 2013

  Actual Average Record
Temperature  
Mean Temperature 19 °F 28 °F  
Max Temperature 24 °F 39 °F 64 °F (1997)
Min Temperature 13 °F 18 °F -19 °F (1911)
Degree Days  
Heating Degree Days 46 36  
Month to date heating degree days 97 73  
Since 1 July heating degree days 2799 2976  
Cooling Degree Days 0 0  
Month to date cooling degree days 0 0  
Year to date cooling degree days 0 0  
Moisture  
Dew Point 6 °F    
Average Humidity 56    
Maximum Humidity 67    
Minimum Humidity 45    
Precipitation  
Precipitation T in 0.01 in 0.48 in (1949)
Month to date precipitation T 0.02  
Year to date precipitation T 0.02  
Snow  
Snow T in 0.20 in 5.00 in (1949)
Month to date snowfall T 0.4  
Since 1 July snowfall 25.4 23.1  
Snow Depth 1.00 in    
Sea Level Pressure  
Sea Level Pressure 30.29 in    
Wind  
Wind Speed 16 mph (NW)    
Max Wind Speed 30 mph    
Max Gust Speed 41 mph    
Visibility 10 miles    
Events      
T = Trace of Precipitation, MM = Missing Value Source: NWS Daily Summary

Daily Weather History Graph

Daily Weather History Graph

Search for Another Location

Airport:

Trip Planner

Search our weather history database for the weather conditions in past years. The results will help you decide how hot, cold, wet, or windy it might be!

Date:

Astronomy

Jan. 02, 2013 Rise Set
Actual Time 7:24 AM MST 4:42 PM MST
Civil Twilight 6:53 AM MST 5:13 PM MST
Nautical Twilight 6:19 AM MST 5:47 PM MST
Astronomical Twilight 5:45 AM MST 6:21 PM MST
Moon 10:20 PM MST (1/2) 10:04 AM MST (1/2)
Length of Visible Light 10h 19m
Length of Day
9h 17m
Waning Gibbous, 74% of the Moon is Illuminated
Jan 2
Waning Gibbous
Jan 4
Last Quarter
Jan 11
New
Jan 18
First Quarter
Jan 26
Full

Hourly Weather History & Observations

Time (MST) Temp. Windchill Dew Point Humidity Pressure Visibility Wind Dir Wind Speed Gust Speed Precip Events Conditions
12:53 AM 19.9 °F 5.7 °F 10.0 °F 65% 30.23 in 10.0 mi WNW 16.1 mph 23.0 mph N/A   Overcast
1:53 AM 19.0 °F 6.1 °F 9.0 °F 65% 30.25 in 10.0 mi NW 12.7 mph 21.9 mph 0.00 in   Overcast
2:53 AM 17.1 °F 3.6 °F 7.0 °F 65% 30.26 in 10.0 mi NW 12.7 mph 20.7 mph N/A   Clear
3:53 AM 18.0 °F 3.6 °F 7.0 °F 62% 30.26 in 10.0 mi NW 15.0 mph - N/A   Mostly Cloudy
4:53 AM 19.0 °F 2.4 °F 8.1 °F 62% 30.25 in 10.0 mi NW 21.9 mph 32.2 mph N/A   Overcast
5:53 AM 19.0 °F 4.0 °F 8.1 °F 62% 30.29 in 10.0 mi NW 17.3 mph 27.6 mph N/A   Overcast
6:53 AM 19.0 °F 5.6 °F 8.1 °F 62% 30.32 in 10.0 mi NW 13.8 mph 23.0 mph N/A   Overcast
7:53 AM 19.0 °F 4.0 °F 8.1 °F 62% 30.29 in 10.0 mi WNW 17.3 mph 24.2 mph N/A   Overcast
8:53 AM 19.0 °F 2.0 °F 8.1 °F 62% 30.30 in 10.0 mi NW 23.0 mph 29.9 mph N/A   Overcast
9:53 AM 19.0 °F 2.7 °F 7.0 °F 59% 30.31 in 10.0 mi NW 20.7 mph 29.9 mph N/A   Mostly Cloudy
10:53 AM 19.9 °F 5.2 °F 8.1 °F 60% 30.31 in 10.0 mi NW 17.3 mph 35.7 mph N/A   Partly Cloudy
11:53 AM 23.0 °F 8.0 °F 7.0 °F 50% 30.27 in 10.0 mi NW 20.7 mph 31.1 mph N/A   Clear
12:53 PM 23.0 °F 6.6 °F 6.1 °F 48% 30.24 in 10.0 mi NW 25.3 mph 38.0 mph N/A   Clear
1:53 PM 23.0 °F 7.6 °F 5.0 °F 46% 30.24 in 10.0 mi NW 21.9 mph 41.4 mph N/A   Clear
2:53 PM 23.0 °F 8.7 °F 5.0 °F 46% 30.29 in 10.0 mi NW 18.4 mph 33.4 mph N/A   Clear
3:53 PM 21.2 °F 6.0 °F 5.0 °F 50% 30.10 in 10.0 mi NW 19.6 mph 27.6 mph N/A   Clear
4:53 PM 19.0 °F 4.5 °F 3.9 °F 52% 30.31 in 10.0 mi NW 16.1 mph 23.0 mph N/A   Clear
5:53 PM 18.0 °F 5.4 °F 5.0 °F 57% 30.32 in 10.0 mi WNW 11.5 mph - N/A   Overcast
6:53 PM 18.0 °F 3.6 °F 3.0 °F 52% 30.35 in 10.0 mi NW 15.0 mph 23.0 mph N/A   Mostly Cloudy
7:53 PM 18.0 °F 4.8 °F 3.9 °F 54% 30.35 in 10.0 mi NW 12.7 mph - N/A   Overcast
8:53 PM 18.0 °F 7.7 °F 3.9 °F 54% 30.37 in 10.0 mi North 8.1 mph 21.9 mph N/A   Overcast
9:53 PM 17.1 °F 8.7 °F 3.9 °F 56% 30.40 in 10.0 mi NW 5.8 mph - N/A   Overcast
10:53 PM 16.0 °F 3.6 °F 3.0 °F 57% 30.41 in 10.0 mi WNW 10.4 mph - N/A   Overcast
11:53 PM 12.2 °F -2.5 °F -0.4 °F 57% 30.20 in 10.0 mi WNW 12.7 mph 20.7 mph N/A   Partly Cloudy